BEL1ZK EBBR-EDDB

Flight info

Callsign BEL1ZK
Flight time 1h 14m
Altitude 37000
Route SPI Y862 KENUM N853 ONUNE DCT PIROT DCT BATEL T207 OGBER OGBER1R
Aircraft A20N/M-DE3FGHIJ1LORVWY/HB1G1

Departure

Time 2026-05-01 07:48
Airport Brussels Airport (EBBR)

Arrival

Time 2026-05-01 09:02
Airport Berlin Brandenburg Airport (EDDB)
Time Latitude Longitude Altitude Speed Heading
2026-05-01 07:26 50.90439 4.48669 132 ft 0 kts 155°
2026-05-01 07:36 50.90443 4.48665 132 ft 2 kts 155°
2026-05-01 07:36 50.90457 4.48656 132 ft 2 kts 155°
2026-05-01 07:36 50.90470 4.48646 131 ft 2 kts 155°
2026-05-01 07:37 50.90493 4.48629 130 ft 2 kts 141°
2026-05-01 07:37 50.90502 4.48610 130 ft 2 kts 110°
2026-05-01 07:37 50.90505 4.48587 130 ft 2 kts 81°
2026-05-01 07:38 50.90503 4.48573 130 ft 1 kts 65°
2026-05-01 07:38 50.90499 4.48564 130 ft 0 kts 64°
2026-05-01 07:39 50.90510 4.48598 130 ft 7 kts 64°
2026-05-01 07:40 50.90543 4.48711 130 ft 13 kts 65°
2026-05-01 07:40 50.90582 4.48850 130 ft 14 kts 66°
2026-05-01 07:40 50.90621 4.48993 130 ft 14 kts 66°
2026-05-01 07:40 50.90630 4.49135 130 ft 13 kts 133°
2026-05-01 07:41 50.90556 4.49200 133 ft 11 kts 154°
2026-05-01 07:41 50.90491 4.49248 136 ft 9 kts 156°
2026-05-01 07:41 50.90373 4.49332 138 ft 9 kts 154°
2026-05-01 07:42 50.90319 4.49392 140 ft 9 kts 153°
2026-05-01 07:42 50.90256 4.49393 141 ft 9 kts 194°
2026-05-01 07:42 50.90184 4.49363 144 ft 13 kts 194°
2026-05-01 07:42 50.90075 4.49319 147 ft 18 kts 193°
2026-05-01 07:43 50.89933 4.49261 150 ft 23 kts 193°
2026-05-01 07:43 50.89761 4.49190 154 ft 27 kts 194°
2026-05-01 07:43 50.89446 4.49016 163 ft 20 kts 193°
2026-05-01 07:44 50.89267 4.48768 167 ft 17 kts 250°
2026-05-01 07:44 50.89181 4.48402 168 ft 17 kts 249°
2026-05-01 07:45 50.89139 4.48224 168 ft 17 kts 249°
2026-05-01 07:45 50.89097 4.48041 168 ft 17 kts 249°
2026-05-01 07:45 50.89062 4.47921 168 ft 0 kts 226°
2026-05-01 07:46 50.89056 4.47913 168 ft 3 kts 214°
2026-05-01 07:46 50.88950 4.47950 170 ft 12 kts 125°
2026-05-01 07:47 50.88928 4.48106 171 ft 16 kts 86°
2026-05-01 07:47 50.88974 4.48340 172 ft 42 kts 70°
2026-05-01 07:47 50.89167 4.49156 172 ft 113 kts 66°
2026-05-01 07:47 50.89498 4.50613 189 ft 166 kts 72°
2026-05-01 07:48 50.90394 4.54416 1145 ft 199 kts 70°
2026-05-01 07:48 50.90993 4.56343 2052 ft 198 kts 66°
2026-05-01 07:48 50.91664 4.58303 2680 ft 210 kts 65°
2026-05-01 07:49 50.92385 4.60394 3201 ft 228 kts 65°
2026-05-01 07:49 50.93847 4.65219 4330 ft 258 kts 74°
2026-05-01 07:49 50.94410 4.67950 5203 ft 261 kts 76°
2026-05-01 07:50 50.94942 4.70691 6137 ft 262 kts 77°
2026-05-01 07:50 50.95640 4.76252 7826 ft 262 kts 102°
2026-05-01 07:50 50.94975 4.78909 8635 ft 262 kts 126°
2026-05-01 07:51 50.93697 4.80917 9411 ft 266 kts 140°
2026-05-01 07:51 50.92262 4.82771 10192 ft 270 kts 140°
2026-05-01 07:51 50.90806 4.84672 10872 ft 278 kts 140°
2026-05-01 07:52 50.87289 4.87909 11675 ft 313 kts 163°
2026-05-01 07:52 50.85133 4.88487 12357 ft 320 kts 171°
2026-05-01 07:52 50.82903 4.88845 13123 ft 323 kts 172°
2026-05-01 07:53 50.78379 4.89534 14542 ft 330 kts 172°
2026-05-01 07:53 50.76078 4.89889 15216 ft 334 kts 172°
2026-05-01 07:53 50.73768 4.90248 15885 ft 338 kts 172°
2026-05-01 07:53 50.71413 4.90615 16543 ft 341 kts 172°
2026-05-01 07:54 50.66996 4.93022 17737 ft 344 kts 139°
2026-05-01 07:55 50.63796 5.03142 19524 ft 355 kts 108°
2026-05-01 07:55 50.62275 5.10588 20637 ft 362 kts 108°
2026-05-01 07:56 50.59912 5.22039 22275 ft 373 kts 108°
2026-05-01 07:56 50.58298 5.29812 23344 ft 379 kts 108°
2026-05-01 07:57 50.57464 5.33816 23852 ft 383 kts 107°
2026-05-01 07:57 50.55798 5.41794 24867 ft 389 kts 107°
2026-05-01 07:58 50.54091 5.49928 25831 ft 396 kts 107°
2026-05-01 07:58 50.52419 5.58235 26734 ft 401 kts 100°
2026-05-01 07:59 50.52985 5.66820 27551 ft 406 kts 67°
2026-05-01 07:59 50.55624 5.74717 28383 ft 411 kts 62°
2026-05-01 08:00 50.61112 5.90795 29834 ft 420 kts 62°
2026-05-01 08:01 50.65203 6.02948 31079 ft 418 kts 62°
2026-05-01 08:01 50.66537 6.06928 31435 ft 418 kts 62°
2026-05-01 08:01 50.67889 6.10967 31785 ft 417 kts 62°
2026-05-01 08:02 50.70776 6.18919 32459 ft 417 kts 56°
2026-05-01 08:02 50.72448 6.22606 32796 ft 416 kts 52°
2026-05-01 08:03 50.76206 6.29532 33450 ft 415 kts 46°
2026-05-01 08:03 50.78287 6.32780 33755 ft 415 kts 43°
2026-05-01 08:03 50.82515 6.38939 34355 ft 414 kts 42°
2026-05-01 08:04 50.86756 6.45104 34994 ft 412 kts 42°
2026-05-01 08:04 50.90959 6.51253 35623 ft 411 kts 43°
2026-05-01 08:05 50.95166 6.57433 36070 ft 413 kts 42°
2026-05-01 08:05 50.97291 6.60562 36269 ft 414 kts 42°
2026-05-01 08:05 50.99398 6.63669 36460 ft 415 kts 43°
2026-05-01 08:06 51.03250 6.70105 36813 ft 417 kts 50°
2026-05-01 08:06 51.06809 6.77373 37165 ft 418 kts 53°
2026-05-01 08:07 51.10332 6.84836 37331 ft 420 kts 53°
2026-05-01 08:08 51.15591 6.95978 37343 ft 419 kts 52°
2026-05-01 08:09 51.22630 7.10967 37333 ft 420 kts 52°
2026-05-01 08:09 51.26115 7.18422 37332 ft 419 kts 52°
2026-05-01 08:10 51.33066 7.33369 37340 ft 419 kts 52°
2026-05-01 08:11 51.39688 7.48754 37355 ft 420 kts 57°
2026-05-01 08:12 51.44282 7.60632 37361 ft 420 kts 57°
2026-05-01 08:13 51.48841 7.72461 37363 ft 420 kts 57°
2026-05-01 08:13 51.53397 7.84331 37362 ft 419 kts 57°
2026-05-01 08:14 51.56442 7.92294 37362 ft 420 kts 57°
2026-05-01 08:14 51.59501 8.00317 37358 ft 419 kts 57°
2026-05-01 08:15 51.64033 8.12250 37362 ft 419 kts 57°
2026-05-01 08:16 51.67071 8.20281 37368 ft 419 kts 57°
2026-05-01 08:16 51.70085 8.28275 37374 ft 418 kts 57°
2026-05-01 08:17 51.73119 8.36345 37381 ft 419 kts 57°
2026-05-01 08:17 51.76140 8.44411 37381 ft 419 kts 57°
2026-05-01 08:18 51.79141 8.52443 37382 ft 419 kts 57°
2026-05-01 08:19 51.85052 8.68341 37391 ft 419 kts 58°
2026-05-01 08:19 51.88049 8.76442 37388 ft 419 kts 58°
2026-05-01 08:20 51.91040 8.84553 37388 ft 419 kts 58°
2026-05-01 08:20 51.94008 8.92629 37388 ft 419 kts 58°
2026-05-01 08:21 51.96981 9.00744 37390 ft 420 kts 58°
2026-05-01 08:21 51.99945 9.08859 37392 ft 420 kts 58°
2026-05-01 08:22 52.02926 9.17051 37394 ft 420 kts 58°
2026-05-01 08:22 52.05751 9.25297 37395 ft 420 kts 62°
2026-05-01 08:23 52.08176 9.33935 37397 ft 420 kts 64°
2026-05-01 08:23 52.10554 9.42641 37401 ft 420 kts 64°
2026-05-01 08:24 52.12938 9.51385 37404 ft 420 kts 64°
2026-05-01 08:24 52.15300 9.60072 37405 ft 420 kts 64°
2026-05-01 08:25 52.17583 9.68498 37406 ft 420 kts 65°
2026-05-01 08:25 52.19942 9.77234 37410 ft 420 kts 65°
2026-05-01 08:26 52.22274 9.85902 37410 ft 420 kts 65°
2026-05-01 08:26 52.24614 9.94638 37410 ft 420 kts 65°
2026-05-01 08:27 52.26940 10.03351 37413 ft 419 kts 65°
2026-05-01 08:27 52.29245 10.12013 37414 ft 419 kts 65°
2026-05-01 08:28 52.31570 10.20791 37415 ft 418 kts 65°
2026-05-01 08:28 52.33864 10.29483 37421 ft 418 kts 65°
2026-05-01 08:29 52.36163 10.38227 37424 ft 418 kts 65°
2026-05-01 08:29 52.38452 10.46968 37429 ft 418 kts 65°
2026-05-01 08:30 52.40721 10.55664 37433 ft 418 kts 65°
2026-05-01 08:30 52.42992 10.64409 37431 ft 418 kts 65°
2026-05-01 08:31 52.45231 10.73059 37429 ft 418 kts 66°
2026-05-01 08:31 52.47481 10.81784 37426 ft 418 kts 66°
2026-05-01 08:32 52.49738 10.90570 37420 ft 418 kts 66°
2026-05-01 08:32 52.51967 10.99288 37416 ft 417 kts 66°
2026-05-01 08:33 52.53988 11.08216 37415 ft 418 kts 74°
2026-05-01 08:33 52.54887 11.17663 37417 ft 421 kts 85°
2026-05-01 08:34 52.55119 11.27232 37411 ft 421 kts 86°
2026-05-01 08:34 52.55317 11.36826 37410 ft 421 kts 86°
2026-05-01 08:35 52.55516 11.46365 37411 ft 420 kts 86°
2026-05-01 08:35 52.55714 11.55946 37416 ft 420 kts 86°
2026-05-01 08:36 52.55902 11.65374 37419 ft 420 kts 86°
2026-05-01 08:36 52.56088 11.75065 37422 ft 421 kts 86°
2026-05-01 08:37 52.56263 11.84661 37430 ft 420 kts 86°
2026-05-01 08:37 52.56430 11.94185 37437 ft 420 kts 86°
2026-05-01 08:38 52.56589 12.03745 37435 ft 419 kts 86°
2026-05-01 08:38 52.56693 12.13288 37429 ft 419 kts 88°
2026-05-01 08:39 52.56759 12.22807 37427 ft 417 kts 83°
2026-05-01 08:39 52.57516 12.32254 37427 ft 416 kts 79°
2026-05-01 08:40 52.58887 12.46247 37221 ft 411 kts 78°
2026-05-01 08:40 52.59333 12.50857 36385 ft 417 kts 78°
2026-05-01 08:40 52.59795 12.55650 35263 ft 426 kts 79°
2026-05-01 08:41 52.60249 12.60411 34405 ft 429 kts 79°
2026-05-01 08:41 52.60691 12.65076 33735 ft 428 kts 79°
2026-05-01 08:41 52.61163 12.70105 33003 ft 428 kts 79°
2026-05-01 08:41 52.61627 12.74882 32262 ft 429 kts 78°
2026-05-01 08:42 52.62152 12.79742 31478 ft 430 kts 78°
2026-05-01 08:42 52.62685 12.84541 30677 ft 431 kts 78°
2026-05-01 08:42 52.63216 12.89352 29825 ft 432 kts 78°
2026-05-01 08:42 52.63750 12.94235 29113 ft 430 kts 78°
2026-05-01 08:43 52.64266 12.99006 28579 ft 423 kts 78°
2026-05-01 08:43 52.64771 13.03713 28023 ft 418 kts 78°
2026-05-01 08:43 52.65269 13.08371 27440 ft 414 kts 78°
2026-05-01 08:43 52.65762 13.13005 26860 ft 409 kts 78°
2026-05-01 08:44 52.66249 13.17601 26298 ft 405 kts 78°
2026-05-01 08:44 52.66727 13.22136 25728 ft 401 kts 78°
2026-05-01 08:44 52.67195 13.26588 25164 ft 396 kts 78°
2026-05-01 08:44 52.67662 13.31049 24593 ft 392 kts 78°
2026-05-01 08:45 52.68118 13.35421 24036 ft 388 kts 78°
2026-05-01 08:45 52.68566 13.39736 23478 ft 384 kts 78°
2026-05-01 08:45 52.69011 13.44044 22899 ft 381 kts 78°
2026-05-01 08:45 52.69452 13.48322 22321 ft 377 kts 78°
2026-05-01 08:46 52.69884 13.52537 21765 ft 374 kts 78°
2026-05-01 08:46 52.70312 13.56719 21214 ft 370 kts 78°
2026-05-01 08:46 52.70732 13.60846 20769 ft 364 kts 78°
2026-05-01 08:46 52.71143 13.64907 20431 ft 356 kts 78°
2026-05-01 08:47 52.71536 13.68933 20091 ft 348 kts 81°
2026-05-01 08:47 52.71358 13.72885 19724 ft 349 kts 105°
2026-05-01 08:47 52.70116 13.76300 19378 ft 355 kts 130°
2026-05-01 08:47 52.68040 13.78493 19037 ft 362 kts 157°
2026-05-01 08:48 52.65593 13.79228 18738 ft 361 kts 169°
2026-05-01 08:48 52.63145 13.79984 18422 ft 350 kts 159°
2026-05-01 08:48 52.60904 13.81282 18123 ft 340 kts 152°
2026-05-01 08:48 52.58765 13.82849 17829 ft 333 kts 149°
2026-05-01 08:49 52.56731 13.84520 17531 ft 324 kts 142°
2026-05-01 08:49 52.55202 13.87003 17215 ft 301 kts 112°
2026-05-01 08:49 52.54699 13.90149 16905 ft 282 kts 83°
2026-05-01 08:49 52.55270 13.93143 16600 ft 271 kts 58°
2026-05-01 08:50 52.56266 13.95705 16320 ft 267 kts 59°
2026-05-01 08:50 52.57135 13.98369 16035 ft 262 kts 63°
2026-05-01 08:50 52.57886 14.01079 15750 ft 258 kts 65°
2026-05-01 08:50 52.58562 14.03758 15467 ft 254 kts 67°
2026-05-01 08:51 52.59206 14.06435 15186 ft 249 kts 67°
2026-05-01 08:51 52.59817 14.09027 14917 ft 245 kts 68°
2026-05-01 08:51 52.60418 14.11618 14644 ft 241 kts 68°
2026-05-01 08:51 52.61011 14.14183 14340 ft 238 kts 68°
2026-05-01 08:52 52.61590 14.16701 14004 ft 237 kts 68°
2026-05-01 08:52 52.62175 14.19244 13669 ft 235 kts 68°
2026-05-01 08:52 52.62745 14.21735 13353 ft 234 kts 68°
2026-05-01 08:52 52.63316 14.24236 13011 ft 233 kts 69°
2026-05-01 08:53 52.63545 14.26839 12619 ft 239 kts 96°
2026-05-01 08:53 52.62872 14.29381 12247 ft 251 kts 124°
2026-05-01 08:53 52.61457 14.31090 11879 ft 264 kts 152°
2026-05-01 08:53 52.59710 14.32124 11566 ft 264 kts 154°
2026-05-01 08:54 52.57916 14.32732 11186 ft 274 kts 180°
2026-05-01 08:54 52.56103 14.31680 10808 ft 283 kts 217°
2026-05-01 08:54 52.54924 14.29177 10488 ft 281 kts 250°
2026-05-01 08:54 52.54369 14.26126 10177 ft 278 kts 258°
2026-05-01 08:55 52.53907 14.23053 9859 ft 277 kts 257°
2026-05-01 08:55 52.53368 14.20039 9522 ft 273 kts 253°
2026-05-01 08:55 52.52763 14.17113 8895 ft 278 kts 251°
2026-05-01 08:55 52.52089 14.14096 8140 ft 284 kts 251°
2026-05-01 08:56 52.51403 14.11118 7552 ft 281 kts 250°
2026-05-01 08:56 52.50713 14.08140 7005 ft 276 kts 250°
2026-05-01 08:56 52.50034 14.05209 6451 ft 272 kts 250°
2026-05-01 08:56 52.49368 14.02333 5922 ft 270 kts 250°
2026-05-01 08:57 52.48754 13.99471 5620 ft 265 kts 253°
2026-05-01 08:57 52.48189 13.96647 5353 ft 261 kts 253°
2026-05-01 08:57 52.47597 13.93864 5100 ft 257 kts 251°
2026-05-01 08:57 52.46975 13.91130 4936 ft 250 kts 251°
2026-05-01 08:58 52.46353 13.88505 4657 ft 249 kts 250°
2026-05-01 08:58 52.45719 13.85881 4330 ft 249 kts 250°
2026-05-01 08:58 52.45081 13.83254 4004 ft 250 kts 250°
2026-05-01 08:58 52.44435 13.80595 3673 ft 250 kts 250°
2026-05-01 08:59 52.43793 13.77942 3343 ft 250 kts 250°
2026-05-01 08:59 52.43155 13.75295 3012 ft 249 kts 250°
2026-05-01 08:59 52.42534 13.72708 2686 ft 242 kts 250°
2026-05-01 08:59 52.41919 13.70143 2370 ft 244 kts 250°
2026-05-01 09:00 52.41307 13.67582 2051 ft 242 kts 250°
2026-05-01 09:00 52.40703 13.65055 1733 ft 234 kts 250°
2026-05-01 09:00 52.40125 13.62633 1429 ft 223 kts 250°
2026-05-01 09:00 52.39573 13.60316 1144 ft 213 kts 250°
2026-05-01 09:01 52.39054 13.58136 865 ft 201 kts 250°
2026-05-01 09:01 52.38556 13.56040 673 ft 188 kts 250°
2026-05-01 09:01 52.38106 13.54146 428 ft 172 kts 250°
2026-05-01 09:01 52.37684 13.52370 187 ft 159 kts 250°
2026-05-01 09:02 52.37316 13.50813 154 ft 131 kts 250°
2026-05-01 09:02 52.37048 13.49678 153 ft 82 kts 248°
2026-05-01 09:02 52.36900 13.49051 150 ft 43 kts 249°
2026-05-01 09:02 52.36796 13.48612 148 ft 39 kts 250°
2026-05-01 09:03 52.36677 13.48299 146 ft 22 kts 194°
2026-05-01 09:03 52.36540 13.48367 146 ft 19 kts 136°
2026-05-01 09:03 52.36549 13.48567 147 ft 18 kts 68°
2026-05-01 09:03 52.36593 13.48759 147 ft 17 kts 70°
2026-05-01 09:04 52.36637 13.48945 148 ft 17 kts 69°
2026-05-01 09:04 52.36682 13.49128 149 ft 17 kts 69°
2026-05-01 09:04 52.36724 13.49305 150 ft 16 kts 69°
2026-05-01 09:04 52.36725 13.49474 150 ft 15 kts 147°
2026-05-01 09:05 52.36701 13.49621 150 ft 14 kts 69°
2026-05-01 09:05 52.36739 13.49777 151 ft 14 kts 69°
2026-05-01 09:05 52.36777 13.49937 151 ft 14 kts 73°
2026-05-01 09:05 52.36733 13.50056 151 ft 14 kts 158°
2026-05-01 09:06 52.36637 13.50121 151 ft 15 kts 159°
2026-05-01 09:06 52.36572 13.50105 150 ft 9 kts 246°
2026-05-01 09:06 52.36552 13.50033 150 ft 5 kts 248°
2026-05-01 09:06 52.36548 13.50018 150 ft 0 kts 248°